Greenville, ME

2:53 PM EST on December 05, 2019 (GMT -0500)
Greenville

Weather History for KGNR - November, 2019

Change the Weather History Date:

Friday, November 15, 2019

  Actual Average (WUND) Record (WUND)
Temperature  
Mean Temperature 26 °F -  
Max Temperature 35 °F - - (-1)
Min Temperature 15 °F - - (-1)
Degree Days  
Heating Degree Days 38    
Moisture  
Dew Point 20 °F    
Average Humidity 75    
Maximum Humidity 92    
Minimum Humidity 57    
Precipitation  
Precipitation 0.07 in - - ()
Sea Level Pressure  
Sea Level Pressure 30.00 in    
Wind  
Wind Speed 5 mph ()    
Max Wind Speed 23 mph    
Max Gust Speed 37 mph    
Averages and records for this station are not official NWS values.
T = Trace of Precipitation, MM = Missing Value Source: Averaged Metar Reports

Daily Weather History Graph

Daily Weather History Graph

Search for Another Location

Airport or City:

Astronomy

Nov. 15, 2019 Rise Set
Actual Time 6:36 AM EST 4:08 PM EST
Civil Twilight 6:04 AM EST 4:40 PM EST
Nautical Twilight 5:28 AM EST 5:16 PM EST
Astronomical Twilight 4:54 AM EST 5:51 PM EST
Moon 6:35 PM EST (11/15) 9:35 AM EST (11/15)
Length of Visible Light 10h 35m
Length of Day
9h 31m
Waning Gibbous, 90% of the Moon is Illuminated
Nov 15
Waning Gibbous
Nov 19
Last Quarter
Nov 26
New
Dec 4
First Quarter
Dec 12
Full

Hourly Weather History & Observations

Time (EST) Temp. Windchill Dew Point Humidity Pressure Visibility Wind Dir Wind Speed Gust Speed Precip Events Conditions
12:56 AM 24.1 °F - 19.9 °F 84% 30.16 in - Calm Calm - N/A   Unknown
1:56 AM 25.0 °F - 19.9 °F 81% 30.14 in - Calm Calm - N/A   Unknown
2:56 AM 25.0 °F 20.7 °F 19.9 °F 81% 30.03 in - South 3.5 mph - N/A   Unknown
3:56 AM 23.0 °F 17.0 °F 19.9 °F 88% 30.09 in - SSE 4.6 mph - N/A   Unknown
4:56 AM 24.1 °F 19.7 °F 21.0 °F 88% 30.07 in - South 3.5 mph - N/A   Unknown
5:56 AM 25.0 °F 20.7 °F 19.9 °F 81% 30.05 in - Variable 3.5 mph - N/A   Unknown
7:56 AM 26.1 °F - 19.9 °F 78% 30.03 in - Calm Calm - N/A   Unknown
8:56 AM 26.1 °F 20.5 °F 21.0 °F 81% 29.99 in - ESE 4.6 mph - N/A   Unknown
9:56 AM 28.9 °F 23.9 °F 21.9 °F 75% 29.97 in - Variable 4.6 mph - N/A   Unknown
10:56 AM 34.0 °F 27.2 °F 23.0 °F 64% 29.93 in - SSW 8.1 mph - N/A   Unknown
11:56 AM 35.1 °F 30.1 °F 24.1 °F 64% 29.91 in - Variable 5.8 mph - N/A   Unknown
12:56 PM 35.1 °F 31.0 °F 23.0 °F 61% 29.90 in - Variable 4.6 mph - N/A   Unknown
1:56 PM 35.1 °F 29.3 °F 24.1 °F 64% 29.91 in - Variable 6.9 mph - N/A   Unknown
2:56 PM 34.0 °F 29.8 °F 23.0 °F 64% 29.91 in - Variable 4.6 mph - N/A   Unknown
3:56 PM 33.1 °F 27.7 °F 24.1 °F 70% 29.90 in - Variable 5.8 mph - N/A   Unknown
4:56 PM 30.9 °F 27.5 °F 24.1 °F 76% 29.88 in - Variable 3.5 mph - N/A   Unknown
5:56 PM 30.0 °F 21.7 °F 28.0 °F 92% 29.91 in - West 9.2 mph 20.7 mph 0.02 in   Unknown
6:56 PM 30.0 °F 20.5 °F 26.1 °F 85% 29.94 in - WNW 11.5 mph 21.9 mph 0.05 in   Unknown
7:56 PM 26.1 °F 14.5 °F 18.0 °F 71% 29.99 in - WNW 13.8 mph 32.2 mph N/A   Unknown
8:56 PM 23.0 °F 8.7 °F 17.1 °F 78% 30.04 in - WNW 18.4 mph 33.4 mph N/A   Unknown
9:56 PM 19.9 °F 3.5 °F 7.0 °F 57% 30.06 in - NW 21.9 mph 35.7 mph N/A   Unknown
10:56 PM 18.0 °F 4.2 °F 9.0 °F 68% 30.09 in - NW 13.8 mph 25.3 mph N/A   Unknown
11:56 PM 15.1 °F -3.3 °F 6.1 °F 68% 30.14 in - WNW 23.0 mph 36.8 mph N/A   Unknown